Location: Enid
(36.3960°N, 97.8780°W)
Time: 02:12:56
(UTC-06:00)

Hubble Space Telescope - Visible Passes

Search period start: 04 December 2016 00:00
Search period end: 14 December 2016 00:00
Orbit: 538 x 542 km, 28.5° (Epoch: 04 December)

Date Brightness Start Highest point End Pass type
(mag) Time Alt. Az. Time Alt. Az. Time Alt. Az.
04 Dec 3.5 17:59:54 10° SW 18:02:16 15° SSW 18:04:38 10° SSE visible
05 Dec 3.7 17:50:29 10° SW 17:52:15 12° SSW 17:54:00 10° S visible
06 Dec 4.2 17:42:07 10° SSW 17:42:13 10° SSW 17:42:18 10° SSW visible
